Location: Bovenkerk
(52.2915°N, 4.8336°E)
Time: 04:39:17
(UTC+00:00)

X-37B - Visible Passes

Search period start: 26 February 2021 00:00
Search period end: 08 March 2021 00:00
Orbit: 383 x 391 km, 45.0° (Epoch: 10 February)

Date Brightness Start Highest point End Pass type
(mag) Time Alt. Az. Time Alt. Az. Time Alt. Az.
26 Feb 3.1 04:07:49 16° SE 04:07:49 16° SE 04:08:50 10° SE visible
26 Feb 2.8 05:40:25 10° SW 05:42:16 15° SSW 05:44:07 10° SSE visible
27 Feb 2.5 04:44:21 18° S 04:44:21 18° S 04:46:24 10° SSE visible
28 Feb 3.0 05:21:03 10° SW 05:21:52 11° SSW 05:22:42 10° S visible
01 Mar 3.3 04:25:18 11° S 04:25:18 11° S 04:25:38 10° SSE visible
